sat.trackr.live / text

‹ back to catalog

STARLINK-5758

NORAD 56037 · 2023-042BD

PAYLOAD ACTIVE UNKNOWN

§ Identity

Operator
Country
US
Launch date
2023-03-24
Launch site
AFETR
Launch vehicle
Mass (kg)
RCS (m²)

Purposes: comms

External: N2YO · Heavens-Above · Gunter

§ Orbital elements

Epoch: 2026-09-20T08:30:54.472896Z

Period
94.27 min
Inclination
43.0057°
Eccentricity
0.0001775
Mean motion
15.27574859 rev/d
Perigee alt
481.8 km
Apogee alt
484.3 km
Semi-major
6,861.2 km
B*
3.7004e-6
RAAN
11.3841°
Arg perigee
275.0642°
Mean anomaly
85.0007°
Rev number
19,297

§ Raw data

STARLINK-57581 56037U 23042BD  26263.35479714 -.00000161  00000+0  37004-5 0  99982 56037  43.0057  11.3841 0001775 275.0642  85.0007 15.27574859192977

JSON: /api/v1/satellites/56037 · /tle

For live sub-satellite position, see the globe view (requires WebGL).

§ Visibility from observer

Set your observer location to see the next 7 days of passes ≥ 10°. The values pass through the URL so the page stays shareable.

No JS? Fill the form by hand. The geolocation button needs JavaScript.